Regional Weather Roundup
Issued by NWS

Home | Current Version | Previous Version | Text Only | Print | Product List | Glossary On
Versions: 1 2 3 4 5 6 7 8 9 10 11 12 13 14 15 16 17 18 19 20 21 22 23 24 25 26 27 28
000
ASUS45 KTFX 251210
RWRMT
MONTANA REGIONAL WEATHER ROUNDUP
NATIONAL WEATHER SERVICE GREAT FALLS MT
500 AM MST SUN FEB 25 2018

NOTE: "FAIR" INDICATES FEW OR NO CLOUDS BELOW 12000 FEET WITH NO
SIGNIFICANT WEATHER AND/OR OBSTRUCTIONS TO VISIBILITY.

MTZ001>007-043-251300-
WEST OF THE DIVIDE

CITY           SKY/WX    TMP DP  RH WIND       PRES   REMARKS
KALISPELL      CLOUDY    26  22  84 S15       29.77F WCI  14
MISSOULA       LGT SNOW  23  19  85 CALM      29.87S FOG
BUTTE          FAIR      12   2  64 CALM      29.75S
MULLAN PASS    LGT SNOW  18  13  80 SW13G23   29.68F VSB 3/4 WCI   5
ANACONDA         N/A     19   7  58 W6        29.76F WCI  11
DEER LODGE       N/A     21   7  53 E6        29.77F WCI  14
HAMILTON         N/A     28  10  47 S17G24    29.87R WCI  16
RONAN            N/A     27  19  74 SE12      29.84F WCI  16
$$

MTZ008-052>055-251300-
SOUTHWEST MONTANA

CITY           SKY/WX    TMP DP  RH WIND       PRES   REMARKS
BOZEMAN        FAIR      14   4  64 CALM      29.79S
DILLON         FAIR      13   5  70 SW15      29.80F WCI  -3
ENNIS          CLOUDY    19   5  53 S10G18    29.83F WCI   8
W YELLOWSTONE  FAIR      10   7  85 SW9       29.77S WCI  -2
THREE FORKS      N/A     27   6  40 SW13      29.78F WCI  16
$$

MTZ009-010-012-014-046-048-049-054-251300-
EAST SLOPES AND CENTRAL MONTANA

CITY           SKY/WX    TMP DP  RH WIND       PRES   REMARKS
CUT BANK       FAIR      23  13  65 W37G43    29.51S WCI   4
GREAT FALLS    FAIR      23  10  57 SW22      29.59F WCI   8
MALMSTROM AFB  FAIR      22  13  68 SW30      29.62F WCI   4
HELENA         MOCLDY    28  10  46 W14       29.74S WCI  17
AUGUSTA        SNOWSHWR  21  14  73 W38       29.58S FOG     WCI   1
BOWMANS CRNR   MOCLDY    21  10  62 S16       29.61F WCI   7
CHOTEAU          N/A     25  10  54 SW21G29   29.56F WCI  10
CONRAD           N/A    N/A N/A N/A SW5       29.61S
FAIRFIELD      MOCLDY    24  13  62 SW32      29.58S WCI   6
POWER          FAIR      20  10  64 SW21      29.57F WCI   4
RAYNESFORD     FAIR      25  10  53 SW32G41   29.58F WCI   7
ULM            MOCLDY    24  14  66 SW28      29.63F WCI   7
WHITE SULPHUR    N/A     19   9  63 SW21G28   29.65R WCI   3
$$

MTZ011-013-016-021-045-047-050-051-251300-
NORTH CENTRAL MONTANA

CITY           SKY/WX    TMP DP  RH WIND       PRES   REMARKS
HAVRE          FAIR      15   8  73 SW23      29.59F WCI  -3
LEWISTOWN      FAIR      14   6  70 SW15      29.61F WCI  -1
N BAR RANCH    FAIR      21   3  45 W10       29.62S WCI  10
CHINOOK          N/A     10   3  72 N3        29.60F
GEYSER         FAIR      20   8  60 W20       29.59F WCI   4
STANFORD       FAIR      21   8  58 W22       29.59F WCI   5
WINIFRED       FAIR      16   7  67 SW15      29.59F WCI   2
$$

MTZ017>020-022>027-061-062-251300-
NORTHEAST MONTANA

CITY           SKY/WX    TMP DP  RH WIND       PRES   REMARKS
GLASGOW        FAIR       8   3  80 W5        29.64R
GLENDIVE       FAIR       8   3  80 SW7       29.68R WCI  -3
JORDAN           N/A      5  -1  76 W12       29.65F WCI -11
MALTA          CLEAR     -4  -8  84 W8        29.62F WCI -19
SIDNEY         FAIR      13   7  77 W14       29.67R WCI  -2
WOLF POINT     FAIR       9   4  80 SW6       29.66F WCI  -1
PLENTYWOOD       N/A     12   9  85 CALM      29.59F
POPLAR           N/A      9   3  78 W9        29.66F WCI  -5
$$

MTZ028>42-056>058-251300-
SOUTHCENTRAL AND SOUTHEAST MONTANA

CITY           SKY/WX    TMP DP  RH WIND       PRES   REMARKS
BAKER          FAIR      13   7  77 W13       29.68S WCI  -2
BILLINGS       FAIR      17   7  64 SW17      29.71R WCI   1
LIVINGSTON     MOCLDY    24   9  52 W23       29.71R WCI   9
MILES CITY     FAIR       7   3  84 S6        29.71S WCI  -3
BIG TIMBER     MOCLDY    23  10  58 W29G37    29.71F WCI   6
FORSYTH          N/A     10   9  92 CALM      29.70F
HARLOWTON      MOCLDY    21  11  66 W30       29.65F WCI   2
LAUREL           N/A     14   5  67 SW12G17   29.74R WCI   0
$$

REGIONAL REPORTS...DAKOTAS

CITY           SKY/WX    TMP DP  RH WIND       PRES   REMARKS
WILLISTON      MOCLDY    16  10  77 W12       29.64R WCI   3
MINOT          FAIR      19  12  74 W21       29.54R WCI   3
DICKINSON      FAIR      17  12  80 W23       29.59S WCI  -1
BEACH          FAIR      12   9  85 SW16      29.68S WCI  -4
CROSBY         CLOUDY    18  14  86 W15       29.58S WCI   3
TIOGA          CLOUDY    14  14 100 W20       29.58R WCI  -3
BISMARCK       MOCLDY    23  18  81 W17       29.61R WCI   9
GRAND FORKS    CLOUDY    11   7  84 W14       29.50R WCI  -5
FARGO          CLOUDY    12   8  84 W9        29.54R WCI   0
BUFFALO SD       N/A     12   5  73 W17       29.61R WCI  -5
RAPID CITY     FAIR      18   5  57 CALM      29.74R
$$

REGIONAL REPORTS...WYOMING/IDAHO/WASHINGTON

CITY           SKY/WX    TMP DP  RH WIND       PRES   REMARKS
GILLETTE       FAIR      11   2  67 W9        29.72S WCI  -2
SHERIDAN       CLOUDY    14   6  70 S5        29.72F
BUFFALO WY     FAIR      14   2  58 S6        29.70S WCI   5
CODY           FAIR      24   4  42 W14G23    29.72R WCI  12
YELLOWSTONE LA   N/A      6   0  76 W6        29.75S WCI  -4
IDAHO FALLS    CLOUDY    18  15  88 SW16G33   29.98R WCI   3
SALMON         MOCLDY    17  14  88 CALM      29.94R
BOISE          CLOUDY    21  15  78 SE5       30.16R
SPOKANE        CLOUDY    29  26  89 SW24G31   29.82F WCI  15
$$

REGIONAL REPORTS...ALBERTA

CITY           SKY/WX    TMP DP  RH WIND       PRES   REMARKS
CALGARY        MOCLDY    23   3  42 NW7       29.37F WCI  15
CARDSTON         N/A     27  10  50 W16G25      N/A  WCI  14
EDMONTON       MOCLDY    19   3  49 S8        29.29F WCI   9
FORT MCMURRAY  CLOUDY    14  10  85 E9        29.34F WCI   2
HIGH LEVEL     CLEAR     -6 -11  77 CALM      29.29S
LETHBRIDGE     LGT SNOW  27  16  63 W35G41    29.47  WCI   9
LLOYDMINSTER   FLURRIES   9   7  92 S14       29.36  WCI  -8
MEDICINE HAT   CLEAR     10   5  79 S10       29.52F WCI  -3
ONEFOUR          N/A     14   5  67 W7          N/A  WCI   4
PEACE RIVER    CLOUDY    16  14  93 CALM      29.19F
PINCHER CREEK  LGT SNOW  23  14  68 W38G53    29.43F WCI   4
WATERTON GATE    N/A     23  12  63 SW24G39     N/A  WCI   7
$$

REGIONAL REPORTS...SASKATCHEWAN

CITY           SKY/WX    TMP DP  RH WIND       PRES   REMARKS
CYPRESS HILLS    N/A      7   0  72 SW3         N/A
ESTEVAN        FLURRIES  16  12  86 W12       29.55S WCI   3
MOOSE JAW        N/A     12   7  79 W10         N/A  WCI  -1
PRINCE ALBERT  FLURRIES   9   5  85 CALM      29.54F
REGINA         CLOUDY    18  16  93 W7        29.54S WCI   8
ROCKGLEN         N/A     12   5  73 W10         N/A  WCI  -1
SASKATOON      PTCLDY     5   1  85 SW8       29.53S WCI  -8
VAL MARIE        N/A     -9 -15  77 W1          N/A
$$




USA.gov is the U.S. government's official web portal to all federal, state and local government web resources and services.